Location: Hamayl? Da??
(36.7028°N, 30.1716°E)
Time: 06:10:29
(UTC+00:00)

COSMOS 2455 - Pass Details

Date: 04 August 2024
Orbit: 898 x 911 km, 67.2° (Epoch: 10 September)

Event Time Altitude Azimuth Distance (km) Brightness Sun altitude
Rises 19:37:31 0° 326° (NW) 3,546 7.3 -26.0°
Reaches altitude 10° 19:40:07 10° 321° (NW) 2,600 6.3 -26.4°
Maximum altitude 19:45:51 47° 249° (WSW) 1,191 3.5 -27.1°
Enters shadow 19:46:59 42° 218° (SW) 1,275 3.4 -27.2°
